Location: Philomena
(55.1756°N, 111.6233°W)
Time: 19:12:47
(UTC+00:00)

Envisat - Visible Passes

Search period start: 10 June 2023 00:00
Search period end: 20 June 2023 00:00
Orbit: 763 x 765 km, 98.2° (Epoch: 10 June)

Date Brightness Start Highest point End Pass type
(mag) Time Alt. Az. Time Alt. Az. Time Alt. Az.
10 Jun 5.7 09:47:24 10° NE 09:49:44 13° E 09:52:02 10° ESE visible
13 Jun 6.0 09:36:21 10° ENE 09:37:04 10° E 09:37:46 10° E visible
18 Jun 5.7 09:47:10 10° NE 09:49:33 13° E 09:51:55 10° ESE visible
